Home > Weather > Rovaniemi > Past weeks

Flag for Finland Weather for the Past 2 Weeks in Rovaniemi, Finland

Now
37 °F

Dense fog.


Feels Like: 35 °F
Forecast: 45 / 56 °F
Wind: 3 mph from North

Location: Rovaniemi Airport

Current Time: Apr 30, 2016 at 12:32:09 PM

Latest Report: Apr 30, 2016 at 11:20 AM


Visibility: 0 mi

Pressure: 30.42 "Hg

Humidity: 100%

Dew Point: 37 °F

Location of RovaniemiLocation

Historic Weather in Rovaniemi — Graph

°F

Rovaniemi Temperature Yesterday

Maximum temperature yesterday: 61 °F (at 1:50 PM)
Minimum temperature yesterday: 37 °F (at 10:50 PM)
Average temperature yesterday: 48 °F

High & Low Weather Summary for the Past Weeks

 TemperatureHumidityPressure
High61 °F (Apr 29, 1:50 PM)100% (Apr 17, 12:20 AM)30.42 "Hg (Apr 17, 12:20 AM)
Low25 °F (Apr 16, 12:50 AM)32% (Apr 15, 1:50 PM)29.39 "Hg (Apr 19, 3:50 AM)
Average36 °F77%29.81 "Hg
* Reported Apr 15 10:20 AM — Apr 30 10:50 AM, Rovaniemi, Weather by CustomWeather, © 2016

Note: Actual official high and low records may vary slightly from our data, if they occured in-between our weather recording intervals... More about our weather records

Advertising

Rovaniemi Weather History for the Previous 24 Hours

Scroll right to see more
 ConditionsComfort  
Time TempWeatherWind HumidityBarometerVisibility
10:50 AM
Sat, Apr 30
37 °FFog.3 mph100%30.42 "Hg0 mi
10:20 AM36 °FFog.5 mph100%30.42 "Hg0 mi
9:50 AM36 °FFog.5 mph100%30.42 "Hg0 mi
9:20 AM36 °FFog.3 mph100%30.42 "Hg0 mi
8:50 AM36 °FFog.5 mph100%30.42 "Hg0 mi
8:20 AM34 °FFog.3 mph100%30.42 "Hg0 mi
7:50 AM34 °FFog.2 mph100%30.39 "Hg0 mi
7:20 AM34 °FFog.6 mph100%30.39 "Hg0 mi
6:50 AM32 °FFog.2 mph100%30.39 "Hg0 mi
6:20 AM32 °FFog.No wind100%30.39 "Hg0 mi
5:20 AM32 °FFog.3 mph100%30.39 "Hg0 mi
4:50 AM32 °FFog.2 mph100%30.39 "Hg0 mi
4:20 AM34 °FFog.3 mph100%30.39 "Hg0 mi
3:50 AM34 °FFog.6 mph100%30.39 "Hg0 mi
3:20 AM34 °FFog.2 mph100%30.39 "Hg0 mi
2:50 AM36 °FFog.2 mph100%30.39 "Hg0 mi
2:20 AM36 °FFog.6 mph100%30.39 "Hg0 mi
1:50 AM36 °FFog.6 mph100%30.39 "Hg0 mi
1:20 AM36 °FFog.7 mph100%30.36 "Hg0 mi
12:50 AM36 °FFog.6 mph100%30.36 "Hg0 mi
12:20 AM36 °FFog.7 mph100%30.36 "Hg0 mi
11:50 PM
Fri, Apr 29
37 °FFog.2 mph100%30.36 "Hg0 mi
11:20 PM37 °FFog.6 mph100%30.36 "Hg0 mi
10:50 PM37 °FDense fog.6 mph100%30.36 "Hg0 mi
10:20 PM39 °FFog.12 mph100%30.36 "Hg0 mi
9:50 PM39 °FFog.12 mph100%30.36 "Hg1 mi
9:20 PM41 °FLight rain. Partly sunny.10 mph93%30.33 "HgN/A
8:50 PM43 °FLight rain. Partly sunny.9 mph93%30.33 "HgN/A
8:20 PM45 °FScattered showers. Partly sunny.6 mph87%30.33 "HgN/A
7:50 PM45 °FSunny.8 mph81%30.30 "Hg10 mi
7:20 PM46 °FSunny.10 mph82%30.30 "Hg10 mi
6:50 PM48 °FSunny.7 mph71%30.30 "Hg10 mi
6:20 PM48 °FSunny.9 mph71%30.30 "Hg10 mi
5:50 PM50 °FSunny.12 mph67%30.27 "Hg10 mi
5:20 PM50 °FSunny.15 mph67%30.27 "Hg10 mi
4:50 PM52 °FPassing clouds.15 mph58%30.27 "HgN/A
4:20 PM57 °FPassing clouds.7 mph41%30.24 "HgN/A
3:50 PM57 °FPassing clouds.7 mph41%30.24 "HgN/A
3:20 PM57 °FPassing clouds.8 mph41%30.24 "HgN/A
2:50 PM59 °FPassing clouds.8 mph39%30.24 "HgN/A
2:20 PM59 °FPassing clouds.10 mph39%30.24 "HgN/A
1:50 PM61 °FSunny.12 mph36%30.24 "Hg10 mi
1:20 PM59 °FPassing clouds.15 mph36%30.24 "HgN/A
12:50 PM59 °FPassing clouds.10 mph42%30.24 "HgN/A
12:20 PM57 °FPassing clouds.12 mph44%30.24 "HgN/A
Weather by CustomWeather, © 2016

See weather overviewHow to use our weather pages